Laconia, NH

2:52 AM EST on December 14, 2019 (GMT -0500)
Laconia Municipal

Weather History for KLCI - November, 2019

Change the Weather History Date:

Monday, November 11, 2019

  Actual Average Record
Temperature  
Mean Temperature 36 °F -  
Max Temperature 42 °F 47 °F 69 °F (2002)
Min Temperature 30 °F 33 °F 18 °F (2017)
Degree Days  
Heating Degree Days 29    
Moisture  
Dew Point 31 °F    
Average Humidity 81    
Maximum Humidity 100    
Minimum Humidity 60    
Precipitation  
Precipitation 0.13 in - - ()
Sea Level Pressure  
Sea Level Pressure 30.09 in    
Wind  
Wind Speed 7 mph ()    
Max Wind Speed 20 mph    
Max Gust Speed 26 mph    
Visibility 9.5 miles    
Events Rain , Snow    
Averages and records for this station are not official NWS values.
T = Trace of Precipitation, MM = Missing Value Source: Averaged Metar Reports

Daily Weather History Graph

Daily Weather History Graph

Search for Another Location

Airport or City:

Astronomy

Nov. 11, 2019 Rise Set
Actual Time 6:34 AM EST 4:24 PM EST
Civil Twilight 6:03 AM EST 4:55 PM EST
Nautical Twilight 5:29 AM EST 5:29 PM EST
Astronomical Twilight 4:55 AM EST 6:03 PM EST
Moon 4:21 PM EST (11/11) 5:18 AM EST (11/11)
Length of Visible Light 10h 51m
Length of Day
9h 50m
Waxing Gibbous, 99% of the Moon is Illuminated
Nov 11
Waxing Gibbous
Nov 12
Full
Nov 19
Last Quarter
Nov 26
New
Dec 4
First Quarter

Hourly Weather History & Observations

Time (EST) Temp. Windchill Dew Point Humidity Pressure Visibility Wind Dir Wind Speed Gust Speed Precip Events Conditions
12:56 AM 42.1 °F 36.1 °F 28.9 °F 60% 30.00 in 10.0 mi SW 10.4 mph - N/A   Overcast
1:56 AM 41.0 °F 35.8 °F 30.0 °F 65% 30.01 in 10.0 mi WSW 8.1 mph - N/A   Mostly Cloudy
2:56 AM 41.0 °F 37.1 °F 30.0 °F 65% 30.01 in 10.0 mi WSW 5.8 mph - N/A   Overcast
3:56 AM 41.0 °F 38.0 °F 30.0 °F 65% 30.04 in 10.0 mi West 4.6 mph - N/A   Overcast
4:56 AM 41.0 °F - 30.0 °F 65% 30.05 in 10.0 mi Calm Calm - N/A   Overcast
5:56 AM 39.9 °F 36.7 °F 30.9 °F 70% 30.07 in 10.0 mi West 4.6 mph - N/A   Overcast
6:56 AM 39.9 °F 37.8 °F 33.1 °F 77% 30.11 in 10.0 mi WNW 3.5 mph - N/A   Overcast
7:56 AM 39.0 °F - 32.0 °F 76% 30.14 in 10.0 mi Calm Calm - N/A   Overcast
8:56 AM 39.0 °F 34.8 °F 30.9 °F 73% 30.15 in 10.0 mi West 5.8 mph - N/A   Overcast
9:56 AM 39.0 °F 36.8 °F 30.9 °F 73% 30.17 in 10.0 mi Variable 3.5 mph - N/A   Overcast
10:56 AM 39.0 °F 35.7 °F 30.9 °F 73% 30.17 in 10.0 mi WSW 4.6 mph - N/A   Overcast
11:56 AM 39.0 °F 36.8 °F 30.0 °F 70% 30.15 in 10.0 mi Variable 3.5 mph - N/A   Overcast
12:56 PM 37.9 °F - 30.0 °F 73% 30.13 in 10.0 mi Calm Calm - N/A   Overcast
1:56 PM 39.0 °F - 30.9 °F 73% 30.14 in 10.0 mi Calm Calm - 0.00 in Rain Light Rain
2:26 PM 37.4 °F 32.8 °F 33.8 °F 87% 30.12 in 6.0 mi East 5.8 mph - 0.00 in Rain Light Rain
2:56 PM 37.0 °F 31.0 °F 35.1 °F 93% 30.14 in 10.0 mi East 8.1 mph - 0.02 in Rain Light Rain
3:42 PM 35.6 °F 28.6 °F 33.8 °F 93% 30.12 in 10.0 mi ENE 9.2 mph 17.3 mph 0.03 in Rain Light Rain
3:56 PM 35.1 °F 26.9 °F 33.1 °F 92% 30.13 in 5.0 mi ENE 11.5 mph - 0.03 in   Overcast
4:56 PM 35.1 °F 29.3 °F 33.1 °F 92% 30.13 in 10.0 mi NE 6.9 mph - 0.05 in Rain Light Rain
5:56 PM 34.0 °F 26.0 °F 32.0 °F 92% 30.12 in 10.0 mi ENE 10.4 mph - 0.02 in Rain Light Rain
6:56 PM 33.1 °F 23.9 °F 30.9 °F 92% 30.10 in 10.0 mi ENE 12.7 mph - 0.01 in Rain Light Rain
7:56 PM 32.0 °F 20.5 °F 30.0 °F 92% 30.08 in 10.0 mi ENE 18.4 mph 23.0 mph 0.00 in   Overcast
8:56 PM 30.9 °F 19.8 °F 30.0 °F 96% 30.06 in 10.0 mi East 16.1 mph 26.5 mph N/A   Overcast
9:17 PM 30.2 °F 17.8 °F 30.2 °F 100% 30.03 in 10.0 mi ENE 19.6 mph - N/A   Overcast
9:56 PM 30.9 °F 19.8 °F 28.9 °F 92% 30.03 in 10.0 mi ENE 16.1 mph 24.2 mph N/A   Overcast
10:56 PM 30.0 °F 18.7 °F 28.0 °F 92% 30.00 in 10.0 mi ENE 16.1 mph 25.3 mph N/A   Overcast
11:56 PM 30.0 °F 18.7 °F 28.0 °F 92% 29.98 in 5.0 mi ENE 16.1 mph - 0.00 in Snow Light Snow